Location: Pine Creek
(45.5072°N, 110.5649°W)
Time: 19:02:19
(UTC+00:00)

ISS - Visible Passes

Search period start: 24 January 2022 00:00
Search period end: 03 February 2022 00:00
Orbit: 413 x 422 km, 51.6° (Epoch: 24 January)

Date Brightness Start Highest point End Pass type
(mag) Time Alt. Az. Time Alt. Az. Time Alt. Az.
24 Jan -2.8 01:47:22 10° W 01:50:31 37° NNW 01:51:34 29° NNE visible
25 Jan -3.2 00:59:10 10° W 01:02:25 48° NNW 01:05:31 11° NE visible
25 Jan -1.6 02:36:46 10° WNW 02:38:27 21° NW 02:38:27 21° NW visible
26 Jan -2.4 01:48:32 10° WNW 01:51:30 28° N 01:52:24 25° NNE visible
27 Jan -2.6 01:00:16 10° WNW 01:03:19 32° N 01:06:19 10° NE visible
27 Jan -1.6 02:37:40 10° NW 02:39:15 21° NW 02:39:15 21° NW visible
28 Jan -2.5 01:49:32 10° WNW 01:52:28 27° N 01:53:11 25° NNE visible
29 Jan -2.4 01:01:20 10° WNW 01:04:15 27° N 01:07:08 10° ENE visible
29 Jan -1.8 02:38:20 10° NW 02:40:04 25° NW 02:40:04 25° NW visible
30 Jan -2.9 01:50:16 10° NW 01:53:22 34° NNE 01:54:03 30° NE visible
31 Jan -2.6 01:02:09 10° NW 01:05:08 29° N 01:08:05 10° ENE visible
31 Jan -2.4 02:38:54 10° WNW 02:41:01 36° NW 02:41:01 36° NW visible
01 Feb -3.6 01:50:49 10° WNW 01:54:07 55° NNE 01:55:08 37° E visible
01 Feb -0.3 03:27:51 10° W 03:28:05 11° W 03:28:05 11° W visible
02 Feb -3.2 01:02:43 10° NW 01:05:55 41° NNE 01:09:06 10° E visible
02 Feb -2.5 02:39:32 10° WNW 02:42:18 40° WSW 02:42:18 40° WSW visible
